| time (UTC) | temp F | wind direction | speed MPH | gust MPH | rain 1hr in | rain 24hr in | rain mn in | humidity % | barometer mb |
| 20260503184755 | 61 | 179 | 3.0 | 5.0 | 0.00 | 0.00 | 0.00 | 59 | 1012.3 |
| 20260503184252 | 61 | 174 | 5.0 | 6.0 | 0.00 | 0.00 | 0.00 | 61 | 1012.3 |
| 20260503183748 | 61 | 184 | 4.0 | 6.0 | 0.00 | 0.00 | 0.00 | 67 | 1012.3 |
| 20260503183246 | 60 | 161 | 5.0 | 5.0 | 0.00 | 0.00 | 0.00 | 65 | 1012.4 |
| 20260503182743 | 60 | 193 | 2.0 | 3.0 | 0.00 | 0.00 | 0.00 | 63 | 1012.3 |
| 20260503182242 | 60 | 191 | 5.0 | 6.0 | 0.00 | 0.00 | 0.00 | 68 | 1012.2 |
| 20260503181738 | 59 | 172 | 4.0 | 9.0 | 0.00 | 0.00 | 0.00 | 67 | 1012.3 |
| 20260503181235 | 60 | 219 | 4.0 | 6.0 | 0.00 | 0.00 | 0.00 | 66 | 1012.2 |
| 20260503180731 | 60 | 178 | 4.0 | 5.0 | 0.00 | 0.00 | 0.00 | 69 | 1012.4 |
| 20260503180230 | 59 | 167 | 5.0 | 6.0 | 0.00 | 0.00 | 0.00 | 70 | 1012.3 |
| 20260503175726 | 59 | 208 | 2.0 | 6.0 | 0.00 | 0.00 | 0.00 | 70 | 1012.3 |
| 20260503175224 | 59 | 178 | 4.0 | 6.0 | 0.00 | 0.00 | 0.00 | 69 | 1012.4 |
| 20260503174720 | 59 | 173 | 5.0 | 5.0 | 0.00 | 0.00 | 0.00 | 68 | 1012.4 |
| 20260503174218 | 59 | 186 | 5.0 | 7.0 | 0.00 | 0.00 | 0.00 | 69 | 1012.3 |
| 20260503173713 | 59 | 163 | 5.0 | 7.0 | 0.00 | 0.00 | 0.00 | 69 | 1012.5 |
| 20260503173209 | 59 | 171 | 3.0 | 6.0 | 0.00 | 0.00 | 0.00 | 67 | 1012.2 |
| 20260503172706 | 59 | 174 | 4.0 | 9.0 | 0.00 | 0.00 | 0.00 | 65 | 1012.3 |
| 20260503172203 | 59 | 188 | 4.0 | 6.0 | 0.00 | 0.00 | 0.00 | 68 | 1012.3 |
| 20260503171659 | 59 | 181 | 4.0 | 4.0 | 0.00 | 0.00 | 0.00 | 71 | 1012.3 |
| 20260503171157 | 58 | 151 | 5.0 | 7.0 | 0.00 | 0.00 | 0.00 | 70 | 1012.3 |
| 20260503170654 | 58 | 174 | 3.0 | 7.0 | 0.00 | 0.00 | 0.00 | 72 | 1012.2 |
| 20260503170151 | 58 | 162 | 5.0 | 5.0 | 0.00 | 0.00 | 0.00 | 72 | 1012.2 |
| 20260503160112 | 55 | 190 | 5.0 | 6.0 | 0.00 | 0.00 | 0.00 | 85 | 1012.3 |
| 20260503150542 | 54 | 166 | 5.0 | 6.0 | 0.00 | 0.00 | 0.00 | 92 | 1011.9 |
| 20260503130932 | 52 | 180 | 5.0 | 5.0 | 0.00 | 0.00 | 0.00 | 94 | 1010.6 |
| 20260503130430 | 52 | 175 | 5.0 | 6.0 | 0.00 | 0.00 | 0.00 | 93 | 1010.5 |
| 20260503110823 | 53 | 165 | 4.0 | 5.0 | 0.00 | 0.00 | 0.00 | 93 | 1010.5 |
| 20260503110320 | 53 | 176 | 4.0 | 5.0 | 0.00 | 0.00 | 0.00 | 93 | 1010.4 |
| 20260503100246 | 53 | 194 | 4.0 | 5.0 | 0.00 | 0.00 | 0.00 | 88 | 1010.4 |
| 20260503090205 | 54 | 180 | 4.0 | 6.0 | 0.00 | 0.00 | 0.00 | 85 | 1010.6 |
| 20260503081636 | 54 | 178 | 4.0 | 6.0 | 0.00 | 0.00 | 0.00 | 83 | 1011.0 |
| 20260503081132 | 54 | 182 | 4.0 | 6.0 | 0.00 | 0.00 | 0.00 | 83 | 1011.0 |
| 20260503080628 | 55 | 180 | 3.0 | 5.0 | 0.00 | 0.00 | 0.00 | 82 | 1010.8 |
| 20260503080125 | 55 | 178 | 4.0 | 5.0 | 0.00 | 0.00 | 0.00 | 82 | 1011.1 |
| 20260503072602 | 55 | 170 | 4.0 | 7.0 | 0.00 | 0.00 | 0.00 | 81 | 1011.1 |
| 20260503072059 | 55 | 164 | 5.0 | 5.0 | 0.00 | 0.00 | 0.00 | 81 | 1011.0 |
| 20260503071556 | 55 | 164 | 6.0 | 7.0 | 0.00 | 0.00 | 0.00 | 81 | 1011.0 |
| 20260503071053 | 55 | 189 | 5.0 | 5.0 | 0.00 | 0.00 | 0.00 | 81 | 1011.0 |
| 20260503070549 | 55 | 171 | 4.0 | 6.0 | 0.00 | 0.00 | 0.00 | 81 | 1010.8 |
| 20260503055009 | 55 | 181 | 4.0 | 5.0 | 0.00 | 0.00 | 0.00 | 80 | 1011.2 |
| 20260503054504 | 55 | 181 | 6.0 | 10.0 | 0.00 | 0.00 | 0.00 | 79 | 1011.1 |
| 20260503054002 | 55 | 177 | 5.0 | 5.0 | 0.00 | 0.00 | 0.00 | 79 | 1011.2 |
| 20260503053500 | 55 | 177 | 4.0 | 7.0 | 0.00 | 0.00 | 0.00 | 80 | 1011.3 |
| 20260503052956 | 55 | 169 | 5.0 | 7.0 | 0.00 | 0.00 | 0.00 | 79 | 1011.3 |
| 20260503052454 | 56 | 164 | 5.0 | 6.0 | 0.00 | 0.00 | 0.00 | 79 | 1011.2 |
| 20260503051950 | 56 | 184 | 5.0 | 6.0 | 0.00 | 0.00 | 0.00 | 79 | 1011.2 |
| 20260503051446 | 56 | 171 | 5.0 | 6.0 | 0.00 | 0.00 | 0.00 | 79 | 1011.3 |
| 20260503050943 | 56 | 182 | 5.0 | 5.0 | 0.00 | 0.00 | 0.00 | 79 | 1011.3 |
| 20260503050439 | 56 | 164 | 5.0 | 6.0 | 0.00 | 0.00 | 0.00 | 79 | 1011.4 |
| 20260503045937 | 56 | 176 | 4.0 | 7.0 | 0.00 | 0.00 | 0.00 | 79 | 1011.3 |
| 20260503045434 | 56 | 185 | 3.0 | 6.0 | 0.00 | 0.00 | 0.00 | 78 | 1011.5 |
| 20260503044931 | 56 | 167 | 6.0 | 6.0 | 0.00 | 0.00 | 0.00 | 78 | 1011.2 |
| 20260503044427 | 56 | 165 | 6.0 | 6.0 | 0.00 | 0.00 | 0.00 | 79 | 1011.2 |
| 20260503043925 | 56 | 162 | 5.0 | 8.0 | 0.00 | 0.00 | 0.00 | 79 | 1011.1 |
| 20260503043421 | 56 | 180 | 4.0 | 7.0 | 0.00 | 0.00 | 0.00 | 79 | 1011.0 |
| 20260503042918 | 57 | 174 | 6.0 | 6.0 | 0.00 | 0.00 | 0.00 | 78 | 1011.0 |
| 20260503042415 | 57 | 179 | 4.0 | 6.0 | 0.00 | 0.00 | 0.00 | 78 | 1010.7 |
| 20260503041911 | 57 | 176 | 4.0 | 6.0 | 0.00 | 0.00 | 0.00 | 78 | 1010.8 |
| 20260503041408 | 57 | 172 | 5.0 | 6.0 | 0.00 | 0.00 | 0.00 | 78 | 1010.9 |
| 20260503040905 | 57 | 175 | 5.0 | 5.0 | 0.00 | 0.00 | 0.00 | 79 | 1010.8 |
| 20260503040403 | 57 | 166 | 5.0 | 7.0 | 0.00 | 0.00 | 0.00 | 78 | 1010.8 |
| 20260503035900 | 57 | 214 | 5.0 | 6.0 | 0.00 | 0.00 | 0.00 | 79 | 1010.7 |
| 20260503035357 | 57 | 182 | 5.0 | 6.0 | 0.00 | 0.00 | 0.00 | 78 | 1010.7 |
| 20260503034854 | 57 | 176 | 5.0 | 6.0 | 0.00 | 0.00 | 0.00 | 78 | 1010.6 |
| 20260503034351 | 57 | 189 | 4.0 | 5.0 | 0.00 | 0.00 | 0.00 | 78 | 1010.4 |
| 20260503033848 | 58 | 168 | 6.0 | 9.0 | 0.00 | 0.00 | 0.00 | 78 | 1010.3 |
| 20260503033346 | 58 | 190 | 4.0 | 5.0 | 0.00 | 0.00 | 0.00 | 79 | 1010.3 |
| 20260503032844 | 58 | 174 | 4.0 | 5.0 | 0.00 | 0.00 | 0.00 | 77 | 1010.2 |
| 20260503032343 | 58 | 180 | 5.0 | 5.0 | 0.00 | 0.00 | 0.00 | 77 | 1010.3 |
| 20260503031839 | 58 | 165 | 5.0 | 6.0 | 0.00 | 0.00 | 0.00 | 77 | 1010.2 |
| 20260503031337 | 58 | 177 | 4.0 | 5.0 | 0.00 | 0.00 | 0.00 | 78 | 1010.2 |
| 20260503030833 | 59 | 194 | 4.0 | 5.0 | 0.00 | 0.00 | 0.00 | 78 | 1010.1 |
| 20260503030330 | 59 | 170 | 5.0 | 6.0 | 0.00 | 0.00 | 0.00 | 78 | 1010.1 |
| 20260503025827 | 59 | 180 | 5.0 | 5.0 | 0.00 | 0.00 | 0.00 | 77 | 1010.0 |
| 20260503025324 | 59 | 187 | 4.0 | 6.0 | 0.00 | 0.00 | 0.00 | 76 | 1010.2 |
| 20260503024821 | 60 | 171 | 5.0 | 6.0 | 0.00 | 0.00 | 0.00 | 77 | 1010.1 |
| 20260503024318 | 60 | 190 | 4.0 | 4.0 | 0.00 | 0.00 | 0.00 | 75 | 1010.0 |
| 20260503023814 | 60 | 179 | 4.0 | 4.0 | 0.00 | 0.00 | 0.00 | 76 | 1009.8 |
| 20260503023312 | 60 | 178 | 4.0 | 6.0 | 0.00 | 0.00 | 0.00 | 75 | 1009.9 |
| 20260503022808 | 60 | 176 | 4.0 | 6.0 | 0.00 | 0.00 | 0.00 | 75 | 1009.8 |
| 20260503022308 | 60 | 180 | 4.0 | 5.0 | 0.00 | 0.00 | 0.00 | 74 | 1009.6 |
| 20260503021805 | 60 | 199 | 5.0 | 6.0 | 0.00 | 0.00 | 0.00 | 73 | 1009.9 |
| 20260503021301 | 61 | 174 | 5.0 | 6.0 | 0.00 | 0.00 | 0.00 | 74 | 1009.9 |
| 20260503020759 | 61 | 182 | 4.0 | 5.0 | 0.00 | 0.00 | 0.00 | 73 | 1009.6 |
| 20260503020256 | 61 | 185 | 4.0 | 4.0 | 0.00 | 0.00 | 0.00 | 73 | 1009.8 |
| 20260503015752 | 61 | 194 | 4.0 | 5.0 | 0.00 | 0.00 | 0.00 | 73 | 1009.8 |
| 20260503015249 | 61 | 199 | 4.0 | 6.0 | 0.00 | 0.00 | 0.00 | 72 | 1009.5 |
| 20260503014745 | 62 | 194 | 5.0 | 5.0 | 0.00 | 0.00 | 0.00 | 72 | 1009.8 |
| 20260503014243 | 62 | 180 | 4.0 | 5.0 | 0.00 | 0.00 | 0.00 | 72 | 1009.6 |
| 20260503013740 | 62 | 189 | 4.0 | 6.0 | 0.00 | 0.00 | 0.00 | 72 | 1009.7 |
| 20260503013238 | 63 | 195 | 4.0 | 5.0 | 0.00 | 0.00 | 0.00 | 72 | 1009.9 |
| 20260503012735 | 63 | 168 | 5.0 | 6.0 | 0.00 | 0.00 | 0.00 | 71 | 1009.8 |
| 20260503012232 | 63 | 186 | 5.0 | 6.0 | 0.00 | 0.00 | 0.00 | 71 | 1009.5 |
| 20260503011729 | 63 | 189 | 4.0 | 5.0 | 0.00 | 0.00 | 0.00 | 70 | 1009.6 |
| 20260503011226 | 64 | 179 | 4.0 | 5.0 | 0.00 | 0.00 | 0.00 | 69 | 1009.5 |
| 20260503010722 | 64 | 190 | 5.0 | 6.0 | 0.00 | 0.00 | 0.00 | 71 | 1009.5 |
| 20260503010219 | 64 | 171 | 5.0 | 5.0 | 0.00 | 0.00 | 0.00 | 72 | 1009.8 |
| 20260503005716 | 64 | 178 | 4.0 | 6.0 | 0.00 | 0.00 | 0.00 | 73 | 1009.6 |
| 20260503005213 | 64 | 196 | 5.0 | 5.0 | 0.00 | 0.00 | 0.00 | 70 | 1009.5 |
| 20260503004709 | 64 | 176 | 4.0 | 5.0 | 0.00 | 0.00 | 0.00 | 70 | 1009.7 |
| 20260503004209 | 64 | 183 | 5.0 | 6.0 | 0.00 | 0.00 | 0.00 | 71 | 1009.6 |
| 20260503003705 | 64 | 179 | 5.0 | 6.0 | 0.00 | 0.00 | 0.00 | 70 | 1009.6 |
| 20260503003202 | 64 | 176 | 5.0 | 5.0 | 0.00 | 0.00 | 0.00 | 70 | 1009.6 |
| 20260503002658 | 65 | 173 | 5.0 | 6.0 | 0.00 | 0.00 | 0.00 | 70 | 1009.5 |
| 20260503002155 | 66 | 200 | 4.0 | 6.0 | 0.00 | 0.00 | 0.00 | 64 | 1009.7 |
| 20260503001651 | 68 | 181 | 6.0 | 6.0 | 0.00 | 0.00 | 0.00 | 66 | 1009.6 |
| 20260503001148 | 68 | 191 | 4.0 | 6.0 | 0.00 | 0.00 | 0.00 | 64 | 1009.6 |
| 20260503000646 | 68 | 212 | 5.0 | 6.0 | 0.00 | 0.00 | 0.00 | 62 | 1009.6 |
| 20260503000143 | 68 | 189 | 5.0 | 6.0 | 0.00 | 0.00 | 0.00 | 62 | 1009.6 |
| 20260502235640 | 67 | 185 | 4.0 | 5.0 | 0.00 | 0.00 | 0.00 | 64 | 1009.7 |
| 20260502235138 | 68 | 175 | 6.0 | 6.0 | 0.00 | 0.00 | 0.00 | 62 | 1009.9 |
| 20260502234633 | 68 | 213 | 5.0 | 6.0 | 0.00 | 0.00 | 0.00 | 63 | 1009.8 |
| 20260502234131 | 68 | 210 | 4.0 | 7.0 | 0.00 | 0.00 | 0.00 | 60 | 1010.1 |
| 20260502233626 | 70 | 200 | 5.0 | 5.0 | 0.00 | 0.00 | 0.00 | 58 | 1009.9 |
| 20260502233123 | 69 | 202 | 4.0 | 6.0 | 0.00 | 0.00 | 0.00 | 60 | 1010.3 |
| 20260502232619 | 69 | 188 | 4.0 | 6.0 | 0.00 | 0.00 | 0.00 | 60 | 1009.8 |
| 20260502232117 | 69 | 176 | 6.0 | 6.0 | 0.00 | 0.00 | 0.00 | 59 | 1010.1 |
| 20260502231613 | 69 | 176 | 5.0 | 5.0 | 0.00 | 0.00 | 0.00 | 59 | 1010.2 |
| 20260502231112 | 68 | 186 | 5.0 | 5.0 | 0.00 | 0.00 | 0.00 | 61 | 1010.2 |
| 20260502230610 | 67 | 202 | 4.0 | 5.0 | 0.00 | 0.00 | 0.00 | 64 | 1010.3 |
| 20260502230108 | 67 | 156 | 6.0 | 6.0 | 0.00 | 0.00 | 0.00 | 66 | 1010.6 |
| 20260502225603 | 67 | 180 | 5.0 | 6.0 | 0.00 | 0.00 | 0.00 | 63 | 1010.4 |
| 20260502225100 | 68 | 212 | 3.0 | 7.0 | 0.00 | 0.00 | 0.00 | 60 | 1010.6 |
| 20260502224556 | 68 | 165 | 6.0 | 6.0 | 0.00 | 0.00 | 0.00 | 61 | 1010.8 |
| 20260502224053 | 68 | 218 | 5.0 | 5.0 | 0.00 | 0.00 | 0.00 | 64 | 1010.9 |
| 20260502223551 | 67 | 224 | 5.0 | 7.0 | 0.00 | 0.00 | 0.00 | 62 | 1011.0 |
| 20260502223050 | 67 | 199 | 5.0 | 6.0 | 0.00 | 0.00 | 0.00 | 63 | 1011.2 |
| 20260502222547 | 66 | 201 | 4.0 | 6.0 | 0.00 | 0.00 | 0.00 | 65 | 1011.1 |
| 20260502222043 | 65 | 171 | 4.0 | 7.0 | 0.00 | 0.00 | 0.00 | 68 | 1011.3 |
| 20260502221538 | 64 | 154 | 6.0 | 7.0 | 0.00 | 0.00 | 0.00 | 69 | 1011.5 |
| 20260502221036 | 65 | 147 | 7.0 | 9.0 | 0.00 | 0.00 | 0.00 | 67 | 1011.4 |
| 20260502220532 | 64 | 156 | 6.0 | 6.0 | 0.00 | 0.00 | 0.00 | 68 | 1011.6 |
| 20260502220028 | 65 | 172 | 6.0 | 6.0 | 0.00 | 0.00 | 0.00 | 69 | 1011.9 |
| 20260502215526 | 64 | 178 | 4.0 | 5.0 | 0.00 | 0.00 | 0.00 | 71 | 1011.9 |
| 20260502215022 | 63 | 185 | 4.0 | 6.0 | 0.00 | 0.00 | 0.00 | 74 | 1012.0 |
| 20260502214519 | 61 | 164 | 6.0 | 7.0 | 0.00 | 0.00 | 0.00 | 76 | 1012.0 |
| 20260502214017 | 61 | 173 | 5.0 | 6.0 | 0.00 | 0.00 | 0.00 | 76 | 1012.0 |
| 20260502213513 | 61 | 172 | 5.0 | 7.0 | 0.00 | 0.00 | 0.00 | 77 | 1012.2 |
| 20260502213012 | 61 | 178 | 4.0 | 5.0 | 0.00 | 0.00 | 0.00 | 76 | 1012.2 |
| 20260502212510 | 61 | 173 | 5.0 | 6.0 | 0.00 | 0.00 | 0.00 | 76 | 1012.1 |
| 20260502212008 | 62 | 186 | 4.0 | 5.0 | 0.00 | 0.00 | 0.00 | 76 | 1012.2 |
| 20260502211503 | 61 | 174 | 4.0 | 5.0 | 0.00 | 0.00 | 0.00 | 76 | 1012.0 |
| 20260502211000 | 61 | 207 | 5.0 | 6.0 | 0.00 | 0.00 | 0.00 | 75 | 1012.2 |
| 20260502210457 | 61 | 185 | 4.0 | 4.0 | 0.00 | 0.00 | 0.00 | 77 | 1012.4 |
| 20260502205954 | 60 | 171 | 5.0 | 6.0 | 0.00 | 0.00 | 0.00 | 77 | 1012.3 |
| 20260502205450 | 60 | 196 | 3.0 | 6.0 | 0.00 | 0.00 | 0.00 | 76 | 1012.3 |
| 20260502204948 | 60 | 193 | 3.0 | 5.0 | 0.00 | 0.00 | 0.00 | 76 | 1012.3 |
| 20260502204444 | 60 | 186 | 4.0 | 6.0 | 0.00 | 0.00 | 0.00 | 76 | 1012.5 |
| 20260502203942 | 60 | 169 | 5.0 | 7.0 | 0.00 | 0.00 | 0.00 | 77 | 1012.6 |
| 20260502203439 | 60 | 216 | 6.0 | 8.0 | 0.00 | 0.00 | 0.00 | 77 | 1012.7 |
| 20260502202935 | 61 | 208 | 3.0 | 4.0 | 0.00 | 0.00 | 0.00 | 75 | 1012.6 |
| 20260502202432 | 61 | 178 | 4.0 | 5.0 | 0.00 | 0.00 | 0.00 | 76 | 1012.8 |
| 20260502201931 | 60 | 157 | 4.0 | 5.0 | 0.00 | 0.00 | 0.00 | 76 | 1012.8 |
| 20260502201426 | 59 | 174 | 4.0 | 7.0 | 0.00 | 0.00 | 0.00 | 79 | 1013.0 |
| 20260502200923 | 60 | 182 | 5.0 | 7.0 | 0.00 | 0.00 | 0.00 | 79 | 1013.2 |
| 20260502200419 | 59 | 159 | 5.0 | 7.0 | 0.00 | 0.00 | 0.00 | 79 | 1013.2 |
| 20260502195917 | 59 | 162 | 6.0 | 6.0 | 0.00 | 0.00 | 0.00 | 79 | 1013.2 |
| 20260502195414 | 60 | 185 | 3.0 | 4.0 | 0.00 | 0.00 | 0.00 | 78 | 1013.3 |
| 20260502194910 | 59 | 181 | 4.0 | 5.0 | 0.00 | 0.00 | 0.00 | 81 | 1013.4 |
| 20260502194407 | 59 | 207 | 4.0 | 5.0 | 0.00 | 0.00 | 0.00 | 79 | 1013.4 |
| 20260502193903 | 59 | 157 | 6.0 | 7.0 | 0.00 | 0.00 | 0.00 | 81 | 1013.3 |
| 20260502193400 | 60 | 170 | 5.0 | 6.0 | 0.00 | 0.00 | 0.00 | 79 | 1013.4 |
| 20260502192855 | 60 | 184 | 2.0 | 4.0 | 0.00 | 0.00 | 0.00 | 78 | 1013.5 |
| 20260502192353 | 60 | 181 | 3.0 | 4.0 | 0.00 | 0.00 | 0.00 | 77 | 1013.4 |
| 20260502191850 | 59 | 210 | 6.0 | 6.0 | 0.00 | 0.00 | 0.00 | 78 | 1013.4 |
| 20260502191348 | 58 | 178 | 4.0 | 5.0 | 0.00 | 0.00 | 0.00 | 80 | 1013.6 |
| 20260502190844 | 58 | 185 | 3.0 | 4.0 | 0.00 | 0.00 | 0.00 | 80 | 1013.5 |
| 20260502190342 | 58 | 198 | 5.0 | 6.0 | 0.00 | 0.00 | 0.00 | 79 | 1013.6 |
| 20260502185838 | 59 | 182 | 4.0 | 4.0 | 0.00 | 0.00 | 0.00 | 80 | 1013.6 |
| 20260502185333 | 58 | 196 | 5.0 | 5.0 | 0.00 | 0.00 | 0.00 | 81 | 1013.6 |